Location: Unspecified
(29.9680°N, 0.0000°E)
Time: 21:11:13
(UTC+00:00)

A-11 Canister half - Pass Details

Date: 23 June 2019
Orbit: 1527 x 1682 km, 47.3° (Epoch: 22 October)

Event Time Altitude Azimuth Distance (km) Brightness Sun altitude
Rises 08:37:12 0° 307° (NW) 4,687 11.2 44.1°
Reaches altitude 10° 08:40:42 10° 317° (NW) 3,698 10.8 44.9°
Maximum altitude 08:48:56 34° 19° (NNE) 2,325 10.6 46.7°
Drops below altitude 10° 08:57:12 10° 82° (E) 3,721 12.0 48.4°
Sets 09:00:43 0° 91° (E) 4,720 12.2 49.2°
